Location: Coopersdale
(40.3556°N, 78.9372°W)
Time: 03:18:14
(UTC+00:00)

Tiros 1 despin weight - Pass Details

Date: 24 January 2021
Orbit: 593 x 642 km, 48.2° (Epoch: 02 March)

Event Time Altitude Azimuth Distance (km) Brightness Sun altitude
Rises 21:43:44 0° 281° (WNW) 2,877 ? 6.1°
Reaches altitude 10° 21:46:17 10° 293° (WNW) 1,963 ? 5.7°
Maximum altitude 21:50:16 30° 355° (N) 1,090 ? 5.0°
Drops below altitude 10° 21:54:12 10° 57° (ENE) 1,940 ? 4.4°
Sets 21:56:43 0° 68° (ENE) 2,837 ? 4.0°
